• In Kazakhstan
  • List of Countries
  • For 7 days
  • Water Temperature
  • Weather Map
  • News
  • Weather Widgets
  • user-avatar
    Login

    Hourly Weather Mayrhofen

    Today, 16 October, Wednesday

    Time Temperature Precipitation Wind Pressure Humidity
    00:00 +7°C° 0.9 mm 1 mps 615 mmHg 96%
    01:00 +6°C° 0 mm 1 mps 615 mmHg 97%
    02:00 +6°C° 0.7 mm 1 mps 615 mmHg 96%
    03:00 +5°C° 0.7 mm 1 mps 615 mmHg 96%
    04:00 +4°C° 0.7 mm 1 mps 615 mmHg 96%
    05:00 +4°C° 0.1 mm 1 mps 615 mmHg 96%
    06:00 +4°C° 0.1 mm 1 mps 615 mmHg 95%
    07:00 +4°C° 0 mm 1 mps 616 mmHg 96%
    08:00 +5°C° 0 mm 1 mps 616 mmHg 91%
    09:00 +6°C° 0 mm 1 mps 617 mmHg 87%
    10:00 +6°C° 0 mm 0 mps 617 mmHg 83%
    11:00 +7°C° 0 mm 0 mps 618 mmHg 76%
    12:00 +10°C° 0 mm 1 mps 618 mmHg 68%
    13:00 +11°C° 0 mm 1 mps 618 mmHg 61%
    14:00 +11°C° 0 mm 1 mps 618 mmHg 62%
    15:00 +11°C° 0 mm 1 mps 618 mmHg 62%
    16:00 +10°C° 0 mm 1 mps 618 mmHg 63%
    17:00 +9°C° 0 mm 1 mps 617 mmHg 71%
    18:00 +7°C° 0 mm 1 mps 617 mmHg 79%
    19:00 +5°C° 0 mm 1 mps 616 mmHg 87%
    20:00 +4°C° 0 mm 2 mps 617 mmHg 87%
    21:00 +4°C° 0 mm 2 mps 617 mmHg 88%
    22:00 +4°C° 0 mm 2 mps 617 mmHg 88%
    23:00 +4°C° 0 mm 2 mps 617 mmHg 89%

    Tomorrow, 17 October, Thursday

    Time Temperature Precipitation Wind Pressure Humidity
    00:00 +4°C° 0 mm 2 mps 617 mmHg 90%
    01:00 +4°C° 0 mm 2 mps 617 mmHg 91%
    02:00 +4°C° 0 mm 2 mps 617 mmHg 91%
    03:00 +4°C° 0 mm 2 mps 617 mmHg 91%
    04:00 +4°C° 0 mm 2 mps 617 mmHg 91%
    05:00 +4°C° 0 mm 1 mps 617 mmHg 90%
    06:00 +4°C° 0 mm 1 mps 617 mmHg 89%
    07:00 +4°C° 0 mm 1 mps 617 mmHg 88%
    08:00 +6°C° 0 mm 1 mps 618 mmHg 80%
    09:00 +8°C° 0 mm 1 mps 619 mmHg 73%
    10:00 +9°C° 0 mm 0 mps 619 mmHg 65%
    11:00 +11°C° 0 mm 1 mps 620 mmHg 62%
    12:00 +12°C° 0 mm 1 mps 620 mmHg 58%
    13:00 +13°C° 0 mm 1 mps 620 mmHg 54%
    14:00 +12°C° 0 mm 1 mps 620 mmHg 58%
    15:00 +12°C° 0 mm 1 mps 619 mmHg 61%
    16:00 +11°C° 0 mm 1 mps 619 mmHg 64%
    17:00 +9°C° 0 mm 1 mps 618 mmHg 72%
    18:00 +7°C° 0 mm 1 mps 618 mmHg 80%
    19:00 +5°C° 0 mm 1 mps 617 mmHg 88%
    20:00 +5°C° 0 mm 1 mps 617 mmHg 88%
    21:00 +5°C° 0 mm 1 mps 618 mmHg 87%
    22:00 +6°C° 0 mm 1 mps 618 mmHg 86%
    23:00 +4°C° 0 mm 2 mps 618 mmHg 87%

    Day after tomorrow, 18 October, Friday

    Time Temperature Precipitation Wind Pressure Humidity
    00:00 +4°C° 0 mm 2 mps 617 mmHg 87%
    01:00 +4°C° 0 mm 2 mps 617 mmHg 88%
    02:00 +4°C° 0 mm 2 mps 617 mmHg 88%
    03:00 +5°C° 0 mm 1 mps 617 mmHg 87%
    04:00 +5°C° 0 mm 1 mps 617 mmHg 87%
    05:00 +4°C° 0 mm 1 mps 617 mmHg 88%
    06:00 +4°C° 0 mm 1 mps 617 mmHg 89%
    07:00 +4°C° 0 mm 1 mps 617 mmHg 89%
    08:00 +6°C° 0 mm 1 mps 617 mmHg 82%
    09:00 +7°C° 0 mm 1 mps 618 mmHg 75%
    10:00 +9°C° 0 mm 1 mps 618 mmHg 68%
    11:00 +10°C° 0 mm 1 mps 619 mmHg 65%
    12:00 +11°C° 0 mm 1 mps 619 mmHg 61%
    13:00 +12°C° 0 mm 1 mps 619 mmHg 57%
    14:00 +11°C° 0 mm 1 mps 619 mmHg 62%
    15:00 +11°C° 0 mm 1 mps 618 mmHg 66%
    16:00 +10°C° 0 mm 1 mps 618 mmHg 70%
    17:00 +9°C° 0 mm 1 mps 617 mmHg 76%
    18:00 +7°C° 0 mm 1 mps 617 mmHg 82%
    19:00 +6°C° 0 mm 1 mps 616 mmHg 88%
    20:00 +6°C° 0 mm 1 mps 616 mmHg 88%
    21:00 +6°C° 0 mm 1 mps 616 mmHg 89%
    22:00 +5°C° 0 mm 2 mps 616 mmHg 90%
    23:00 +5°C° 0 mm 2 mps 616 mmHg 91%

    19 October, Saturday

    Time Temperature Precipitation Wind Pressure Humidity
    00:00 +5°C° 0 mm 2 mps 616 mmHg 91%
    01:00 +5°C° 0 mm 2 mps 616 mmHg 92%
    02:00 +5°C° 0 mm 2 mps 616 mmHg 92%
    03:00 +5°C° 0 mm 2 mps 616 mmHg 93%
    04:00 +5°C° 0 mm 2 mps 615 mmHg 93%
    05:00 +4°C° 0 mm 2 mps 615 mmHg 94%
    06:00 +4°C° 0 mm 2 mps 615 mmHg 94%
    07:00 +4°C° 0 mm 2 mps 615 mmHg 94%
    08:00 +5°C° 0 mm 3 mps 615 mmHg 89%
    09:00 +7°C° 0 mm 3 mps 615 mmHg 85%
    10:00 +8°C° 0 mm 3 mps 616 mmHg 80%
    11:00 +8°C° 0 mm 3 mps 616 mmHg 78%
    12:00 +9°C° 0 mm 3 mps 616 mmHg 75%
    13:00 +8°C° 0 mm 4 mps 615 mmHg 73%
    14:00 +8°C° 0 mm 4 mps 615 mmHg 75%
    15:00 +7°C° 0 mm 4 mps 615 mmHg 78%
    16:00 +7°C° 0 mm 4 mps 614 mmHg 81%
    17:00 +6°C° 0 mm 4 mps 614 mmHg 84%
    18:00 +5°C° 0 mm 4 mps 614 mmHg 87%
    19:00 +5°C° 0 mm 4 mps 614 mmHg 91%
    20:00 +5°C° 0 mm 4 mps 614 mmHg 91%
    21:00 +5°C° 0 mm 3 mps 614 mmHg 91%
    22:00 +5°C° 0 mm 3 mps 615 mmHg 92%
    23:00 +5°C° 0.1 mm 3 mps 615 mmHg 92%

    20 October, Sunday

    Time Temperature Precipitation Wind Pressure Humidity
    00:00 +5°C° 0.1 mm 3 mps 615 mmHg 93%
    01:00 +5°C° 0.1 mm 3 mps 615 mmHg 93%
    02:00 +5°C° 0.2 mm 3 mps 615 mmHg 94%
    03:00 +5°C° 0.2 mm 2 mps 615 mmHg 94%
    04:00 +5°C° 0.2 mm 2 mps 615 mmHg 94%
    05:00 +5°C° 0.1 mm 2 mps 615 mmHg 95%
    06:00 +5°C° 0.1 mm 2 mps 616 mmHg 95%
    07:00 +6°C° 0.1 mm 2 mps 616 mmHg 95%
    08:00 +6°C° 0 mm 2 mps 616 mmHg 91%
    09:00 +7°C° 0 mm 3 mps 617 mmHg 87%
    10:00 +8°C° 0 mm 3 mps 618 mmHg 83%
    11:00 +9°C° 0.1 mm 3 mps 618 mmHg 79%
    12:00 +9°C° 0.1 mm 3 mps 618 mmHg 75%
    13:00 +10°C° 0.1 mm 3 mps 618 mmHg 71%
    14:00 +10°C° 0.1 mm 3 mps 618 mmHg 74%
    15:00 +9°C° 0.1 mm 3 mps 618 mmHg 77%
    16:00 +9°C° 0.1 mm 3 mps 617 mmHg 79%
    17:00 +8°C° 0.1 mm 2 mps 618 mmHg 83%
    18:00 +7°C° 0.1 mm 2 mps 618 mmHg 87%
    19:00 +6°C° 0.1 mm 2 mps 618 mmHg 91%
    20:00 +6°C° 0.1 mm 2 mps 618 mmHg 92%
    21:00 +6°C° 0.1 mm 2 mps 618 mmHg 93%
    22:00 +5°C° 0.1 mm 3 mps 618 mmHg 94%
    23:00 +5°C° 0.1 mm 3 mps 618 mmHg 94%

    21 October, Monday

    Time Temperature Precipitation Wind Pressure Humidity
    00:00 +5°C° 0.1 mm 3 mps 618 mmHg 94%
    01:00 +5°C° 0.1 mm 3 mps 618 mmHg 94%
    02:00 +5°C° 0.1 mm 3 mps 618 mmHg 94%
    03:00 +5°C° 0.1 mm 3 mps 618 mmHg 94%
    04:00 +5°C° 0.1 mm 3 mps 617 mmHg 93%
    05:00 +5°C° 0 mm 3 mps 618 mmHg 93%
    06:00 +5°C° 0 mm 3 mps 618 mmHg 93%
    07:00 +5°C° 0 mm 3 mps 618 mmHg 92%
    08:00 +7°C° 0 mm 3 mps 618 mmHg 89%
    09:00 +8°C° 0 mm 3 mps 618 mmHg 86%
    10:00 +9°C° 0 mm 3 mps 619 mmHg 83%
    11:00 +10°C° 0 mm 3 mps 619 mmHg 81%
    12:00 +11°C° 0 mm 3 mps 619 mmHg 79%
    13:00 +11°C° 0 mm 3 mps 620 mmHg 76%
    14:00 +11°C° 0.1 mm 3 mps 619 mmHg 79%
    15:00 +11°C° 0.1 mm 3 mps 619 mmHg 82%
    16:00 +10°C° 0.1 mm 3 mps 619 mmHg 84%
    17:00 +9°C° 0.1 mm 3 mps 619 mmHg 87%
    18:00 +9°C° 0.1 mm 3 mps 618 mmHg 89%
    19:00 +8°C° 0.1 mm 3 mps 618 mmHg 91%
    20:00 +8°C° 0.1 mm 3 mps 618 mmHg 90%
    21:00 +8°C° 0.1 mm 3 mps 618 mmHg 90%
    22:00 +7°C° 0.1 mm 3 mps 618 mmHg 89%
    23:00 +7°C° 0 mm 3 mps 618 mmHg 89%
    Show more